STARLINK-34782, 65358

Orbit data source: Space-Track

STARLINK-34782, 65358 is a payload satellite owned by SpaceX/Seattle (US) in LEO that was launched on Thu, 28 Aug 2025 UTC via an FALCON 9 launch vehicle from the Air Force Eastern Test Range (AFETR). Payload-class satellites include a variety of spacecraft equipped with specific instruments for various scientific and technological missions. These include communications satellites like Starlink; space stations such as the ISS; scientific satellites like the Hubble; Earth observation satellites from companies like Planet Labs, Umbra, and HawkEye 360; GPS; miniature CubeSats for education and research; and military/defense satellites.

Loading next visibility...
Identifier
65358, 2025-190H
Orbit
LEO
Country
Flag of USUS
Related business
Manufacturer
SpaceX/Seattle
Mission
Operational Commercial Communications
Bus & Motor
STARLINK V2MO, Unknown motor
Mass
575 kg wet, ~530 kg dry
Launch date (UTC)
2025-08-28 (7 months ago)
Launch vehicle
FALCON 9
Launch site
Air Force Eastern Test Range (AFETR)
Object type
Payload
Rocket body
Debris
Shape & HBR
Box + 2 Pan, 17.7 m
Radar Cross Section
36.964 m², Large (>1 m²)

Expand to show TLE details & history
Last TLE update: 8 hours ago

TLE from 8 hours ago
0 STARLINK-34782
1 65358U 25190H   26094.25224836  .00051607  00000-0  17406-2 0  9996
2 65358  53.1602  49.1123 0000835  94.1933 265.9163 15.30234802 33670
Epoch: 2026-04-04T06:03Z
TLE epoch observation values (Epoch: 2026-04-04T06:03:14.258Z)
Latitude
-0.00003°
Longitude
125.72818°
Altitude
476.052 km
Speed
7.629 km/s
True Right ascension
03h 16m 26s
True Declination
0° 00' 00"
Sunlit
Object was in daylight at epoch
Visualization orbit readout
Latitude
Unknown
Longitude
Unknown
Altitude
Unknown
Speed
Unknown
Apparent Right ascension
Unknown
Apparent Declination
Unknown
Sunlit
N/A
Visualization observer readout
Local Sidereal Time
19:28:27
Azimuth
Unknown
Elevation
Unknown
Doppler factor
Unknown
Orbital elements
Apogee altitude
475.94 km
Perigee altitude
474.795 km
Semi-major axis
6,853.505 km
Eccentricity
0.00008
Inclination
53.1602°
RAAN
49.1123°
Arg. of periapsis
94.1933°
True anomaly
265.90676°
Mean anomaly
265.9163°
Eccentric anomaly
265.91153°
Mean motion
3.82538 °/min
Orbital period
94.11 mins
BSTAR
0.0017406
Loading maneuver chart data...
Computing Atmospheric mass density...
Loading historical data...
Loading historical data...
Loading historical data...
Loading historical data...
Loading historical data...
Loading historical data...
Loading historical data...

Documentation

Showing up to 5 results
|